Overview Statistics Trail Chart Weather Telemetry Raw packets
 

This is the latest recevied weather packets stored in our database for station/object KB9YVI-11. If no packets are shown the sender has not sent any weather packets the latest 10 day(s).

<< 15 16 17 18 19 20 21 >>
Time Temp. Humidity Pressure Rain* Wind** Luminosity Snow
1788476809 34.44° C 76% 0 hPa 0 mm - - -
1788475610 35.56° C 68% 0 hPa 0 mm - - -
1788475009 36.11° C 66% 0 hPa 0 mm - - -
1788474710 36.11° C 65% 0 hPa 0 mm - - -
1788474108 36.11° C 66% 0 hPa 0 mm - - -
1788473210 36.11° C 67% 0 hPa 0 mm - - -
1788472909 36.11° C 66% 0 hPa 0 mm - - -
1788472010 36.11° C 65% 0 hPa 0 mm - - -
1788471111 36.11° C 63% 0 hPa 0 mm - - -
1788470508 36.67° C 65% 0 hPa 0 mm - - -
1788470215 36.67° C 65% 0 hPa 0 mm - - -
1788469909 36.67° C 64% 0 hPa 0 mm - - -
1788469611 36.67° C 65% 0 hPa 0 mm - - -
1788469309 36.67° C 66% 0 hPa 0 mm - - -
1788469009 36.67° C 65% 0 hPa 0 mm - - -
1788468709 36.11° C 65% 0 hPa 0 mm - - -
1788468409 36.11° C 67% 0 hPa 0 mm - - -
1788468109 35.56° C 68% 0 hPa 0 mm - - -
1788467509 36.11° C 66% 0 hPa 0 mm - - -
1788467209 36.11° C 65% 0 hPa 0 mm - - -
1788466908 36.11° C 67% 0 hPa 0 mm - - -
1788466609 36.11° C 66% 0 hPa 0 mm - - -
1788466309 36.11° C 68% 0 hPa 0 mm - - -
1788466009 36.11° C 66% 0 hPa 0 mm - - -
1788465710 36.11° C 66% 0 hPa 0 mm - - -

* Rain latest hour (hover to see other rain measurements)
** Current wind speed in m/s (hover to see current wind gust speed)